Probability
0 0 0 0 0 0 0 0 0 0 0 0 0 0 0 0 0 0 0 0 0 0 0 0 0 0 0 0 0 0 0 0 0 0 0 0 0 0 0 0 0 0 0
0 0 0 0 0 0 0 0 0 0 0 0 0 0 0 0 0 0 0 0 0 0 0 0 0 0 0 0 0 0 0 0 0 0 0 0 0 0 0 0 0 0 0
0 0 0 0 0 0 0 0 0 0 0 0 0 0 0 0 0 0 0 0 0 0 0 0 0 0 0 0 0 0 0 0 0 0 0 0 0 0 0 0 0 0 0
0 0 0 0 0 0 0 0 0 0 0 0 0 0 0 0 0 0 0 0 0 0 0 0 0 0 0 0 0 0 0 0 0 0 0 0 0 0 0 0 0 0 0
0 0 0 0 0 0 0 0 0 0 0 0 0 0 0 0 0 0 0 0 0 0 0 0 0 0 0 0 0 0 0 0 0 0 0 0 0 0 0 0 0 0 0
0 0 0 0 0 0 0 0 0 0 0 0 0 0 0 0 0 0 0 0 0 0 0 0 0 0 0 0 0 0 0 0 0 0 0 0 0 0 0 0 0 0 0
0 0 0 0 0 0 0 0 0 0 0 0 0 0 0 0 0 0 0 0 0 0 0 0 0 0 0 0 0 0 0 0 0 0 0 0 0 0 0 0 0 0 0
0 0 0 0 0 0 0 0 0 0 0 0 0 0 0 0 0 0 0 0 0 0 0 0 0 0 0 0 0 0 0 0 0 0 0 0 0 0 0 0 0 0 0
0 0 0 0 0 0 0 0 0 0 0 0 0 0 0 0 0 0 0 0 0 0 0 0 0 0 0 0 0 0 0 0 0 0 0 0 0 0 0 0 0 0 0
0 0 0 0 0 0 0 0 0 0 0 0 0 0 0 0 0 0 0 0 0 0 0 0 0 0 0 0 0 0 0 0 0 0 0 0 0 0 0 0 0 0 0
0 0 0 0 0 0 0 0 0 0 0 0 0 0 0 0 0 0 0 0 0 0 0 0 0 0 0 0 0 0 0 0 0 0 0 0 0 0 0 0 0 0 0
0 0 0 0 0 0 0 0 0 0 0 0 0 0 0 0 0 0 0 0 0 0 0 0 0 0 0 0 0 0 0 0 0 0 0 0 0 0 0 0 0 0 0
0 0 0 0 0 0 0 0 0 0 0 0 0 0 0 0 0 0 0 0 0 0 0 0 0 0 0 0 0 0 0 0 0 0 0 0 0 0 0 0 0 0 0
0 0 0 0 0 0 0 0 0 0 0 0 0 0 0 0 0 0 0 0 0 0 0 0 0 0 0 0 0 0 0 0 0 0 0 0 0 0 0 0 0 0 0
0 0 0 0 0 0 0 0 0 0 0 0 0 0 0 0 0 0 0 0 0 0 0 0 0 0 0 0 0 0 0 0 0 0 0 0 0 0 0 0 0 0 0
0 0 0 0 0 0 0 0 0 0 0 0 0 0 0 0 0 0 0 0 0 0 0 0 0 0 0 0 0 0 0 0 0 0 0 0 0 0 0 0 0 0 0
0 0 0 0 0 0 0 0 0 0 0 0 0 0 0 0 0 0 0 0 0 0 0 0 0 0 0 0 0 0 0 0 0 0 0 0 0 0 0 0 0 0 0
0 0 0 0 0 0 0 0 0 0 0 0 0 0 0 0 0 0 0 0 0 0 0 0 0 0 0 0 0 0 0 0 0 0 0 0 0 0 0 0 0 0 0
0 0 0 0 0 0 0 0 0 0 0 0 0 0 0 0 0 0 0 0 0 0 0 0 0 0 0 0 0 0 0 0 0 0 0 0 0 0 0 0 0 0 0
0 0 0 0 0 0 0 0 0 0 0 0 0 0 0 0 0 0 0 0 0 0 0 0 0 0 0 0 0 0 0 0 0 0 0 0 0 0 0 0 0 0 0
0 0 0 0 0 0 0 0 0 0 0 0 0 0 0 0 0 0 0 0 0 0 0 0 0 0 0 0 0 0 0 0 0 0 0 0 0 0 0 0 0 0 0
0 0 0 0 0 0 0 0 0 0 0 0 0 0 0 0 0 0 0 0 0 0 0 0 0 0 0 0 0 0 0 0 0 0 0 0 0 0 0 0 0 0 0
0 0 0 0 0 0 0 0 0 0 0 0 0 0 0 0 0 0 0 0 0 0 0 0 0 0 0 0 0 0 0 0 0 0 0 0 0 0 0 0 0 0 0
0 0 0 0 0 0 0 0 0 0 0 0 0 0 0 0 0 0 0 0 0 0 0 0 0 0 0 0 0 0 0 0 0 0 0 0 0 0 0 0 0 0 0
0 0 0 0 0 0 0 0 0 0 0 0 0 0 0 0 0 0 0 0 0 0 0 0 0 0 0 0 0 0 0 0 0 0 0 0 0 0 0 0 0 0 0
0 0 0 0 0 0 0 0 0 0 0 0 0 0 0 0 0 0 0 0 0 0 0 0 0 0 0 0 0 0 0 0 0 0 0 0 0 0 0 0 0 0 0
Wind_Speed
2 1 1 1 1 1 2 3 3 2 2 3 3 3 3 3 3 3 3 3 3 3 3 3 4 3 3 3 3 3 3 4 7 6 4 3 4 5 5 4 4 5 6
2 1 1 1 1 1 2 2 2 3 3 3 3 3 3 3 3 3 4 4 4 5 4 4 4 3 4 3 3 4 4 4 5 8 5 4 5 5 5 6 5 4 5
1 1 1 1 1 2 2 2 2 2 2 3 3 3 4 4 4 4 4 4 5 5 5 5 5 4 5 4 4 4 4 4 4 5 6 4 4 3 4 5 5 4 5
1 1 2 2 2 2 2 2 2 2 2 3 3 4 4 4 4 4 4 4 4 5 5 5 5 5 6 5 5 5 4 4 4 5 6 5 4 4 3 4 5 4 5
1 2 2 2 2 2 2 2 2 2 3 3 2 3 3 3 4 4 4 4 5 5 5 5 6 7 8 6 5 5 5 4 4 5 5 5 4 3 3 3 4 5 5
2 2 2 2 2 2 2 2 2 3 3 2 3 3 3 4 5 7 5 4 5 5 6 5 5 6 8 9 9 8 7 6 6 5 5 6 6 5 4 3 4 4 5
2 2 2 2 2 2 2 2 3 3 3 3 4 4 4 5 6 7 7 5 5 5 6 5 5 4 5 5 7 8 8 9 9 6 7 7 6 5 4 5 5 5 6
2 3 3 3 3 3 3 3 3 3 3 4 4 4 4 5 7 8 7 5 5 5 5 6 6 5 5 4 5 6 6 6 6 5 6 6 5 4 4 5 5 5 5
3 3 3 3 3 3 4 4 4 3 4 4 3 4 5 6 7 8 7 4 4 5 5 5 5 5 7 7 5 5 6 6 6 7 8 7 8 7 4 2 2 3 5
4 4 4 3 3 4 4 4 3 3 4 3 4 4 5 5 7 8 7 3 4 4 4 4 6 7 8 8 5 5 7 6 4 4 5 6 5 5 5 4 3 3 3
4 4 3 3 3 3 3 3 3 3 3 3 4 4 4 5 6 7 6 3 4 4 4 4 4 8 10 9 7 5 7 6 3 3 4 3 3 2 3 3 3 4 4
3 3 3 3 3 2 2 3 2 2 3 3 4 4 3 4 5 6 7 6 5 4 4 4 5 9 10 10 7 7 8 5 2 2 3 3 3 3 3 3 3 4 4
3 3 3 3 3 2 2 3 3 2 2 3 3 4 4 3 5 7 7 8 7 4 4 7 9 9 8 6 7 7 5 3 3 3 4 4 3 3 2 2 3 3 4
3 3 3 2 3 3 2 2 2 3 3 3 3 4 4 4 4 3 3 4 6 6 5 5 8 8 6 4 3 4 3 3 3 4 4 3 2 1 2 2 2 2 3
3 3 3 2 3 3 3 3 4 4 4 4 4 4 4 5 6 7 4 3 3 4 3 2 2 2 3 3 2 2 2 2 3 3 3 3 3 2 2 2 2 2 2
3 3 2 2 2 3 3 4 6 6 8 8 7 6 5 7 9 8 8 7 7 4 2 2 3 3 3 3 3 3 3 3 3 3 3 3 3 3 3 2 2 2 3
3 3 3 3 3 3 3 4 5 6 7 8 8 9 9 9 9 9 8 6 5 2 1 2 3 3 3 3 3 3 3 3 3 3 3 3 3 3 3 3 2 3 3
3 3 3 3 3 3 3 3 4 5 6 5 6 9 10 10 9 8 7 3 2 2 2 3 3 3 3 3 3 3 3 3 2 3 3 3 3 3 3 3 2 3 4
3 3 3 3 3 3 3 3 3 4 5 5 5 5 7 8 8 7 4 1 3 3 3 3 3 3 3 4 3 3 3 3 3 3 3 3 3 2 3 3 3 4 3
3 4 3 3 3 3 3 3 4 4 5 5 5 5 3 3 3 3 2 2 3 3 4 4 4 4 4 4 4 3 3 3 3 3 3 3 3 3 3 4 3 3 3
3 3 4 3 3 4 4 4 4 4 5 5 5 6 6 4 4 4 4 3 4 4 4 4 4 4 4 3 3 4 4 4 4 4 3 3 3 3 3 3 3 3 3
3 3 3 4 4 4 4 4 4 5 6 6 6 5 7 4 4 4 4 4 4 4 4 4 4 4 4 4 4 4 4 5 4 4 4 3 3 3 3 3 3 3 3
3 3 3 4 4 5 5 4 4 5 5 6 5 5 4 4 5 5 5 5 4 4 4 4 4 4 4 4 4 5 5 5 5 4 4 4 3 3 3 3 4 4 3
3 4 4 4 4 4 4 5 5 5 5 5 5 5 5 5 5 6 5 5 4 5 4 4 5 6 7 5 4 5 5 5 5 4 5 5 4 4 3 3 4 4 4
3 4 4 4 4 4 5 5 5 5 5 5 5 5 5 5 5 5 5 4 5 5 6 5 5 6 7 8 7 6 7 8 6 4 4 4 5 5 4 4 4 4 4
3 4 4 4 4 5 5 5 5 5 5 5 5 5 5 5 5 5 5 4 5 5 6 5 6 7 8 7 8 8 8 8 7 6 4 4 4 4 4 4 5 4 4
Wind_Direction
292 278 266 263 248 232 233 234 231 229 214 206 208 209 216 219 211 209 222 222 231 243 241 234 241 238 236 237 239 238 238 239 261 281 279 287 283 292 303 295 285 283 287
282 261 250 251 230 228 242 246 238 230 223 218 210 212 218 221 220 223 232 232 233 238 240 238 243 239 240 240 240 244 246 243 252 276 286 283 277 284 293 293 292 287 283
293 256 257 258 243 244 250 250 246 239 237 227 213 219 226 227 226 229 232 237 240 240 237 237 242 237 243 244 245 246 249 255 254 267 280 281 280 282 291 288 286 282 285
297 265 256 258 254 254 259 258 252 243 243 241 233 232 235 235 233 233 236 241 246 248 244 241 240 238 243 244 245 247 252 259 262 268 275 279 276 277 276 284 295 292 291
278 265 262 268 264 258 264 268 263 253 248 247 246 248 245 240 237 234 235 239 245 252 252 248 247 247 251 250 251 249 246 250 257 266 273 280 279 285 282 282 284 298 290
279 271 285 291 281 270 268 274 273 262 256 249 246 248 251 251 255 250 248 244 246 248 255 257 256 251 256 256 258 256 246 245 251 257 266 270 277 278 281 278 283 296 291
298 304 310 309 300 287 277 270 267 263 259 254 254 253 258 262 265 262 257 252 248 248 252 258 262 260 254 260 266 264 259 256 250 248 257 261 272 269 271 271 263 267 269
300 304 310 313 308 308 287 268 267 264 257 256 258 256 260 266 269 268 264 255 254 250 248 248 255 260 256 265 270 271 267 260 254 249 253 263 263 262 251 255 263 271 276
300 297 298 294 293 294 289 283 279 273 268 263 264 260 263 272 273 272 268 256 257 257 256 252 252 256 265 269 267 272 279 274 268 260 263 269 275 274 269 265 265 271 281
292 292 294 285 277 274 279 285 290 281 273 276 275 267 266 272 276 276 269 256 262 267 267 261 255 261 271 270 258 258 269 276 279 284 277 280 276 267 258 241 246 253 272
298 301 296 285 276 275 287 293 294 291 290 283 281 283 278 279 284 284 278 262 259 269 270 269 263 271 275 275 268 255 264 277 264 264 273 278 279 271 260 252 245 242 247
308 302 295 293 292 297 302 304 301 289 286 287 291 295 291 291 288 286 282 279 284 268 272 276 276 281 281 280 275 274 279 280 263 260 264 267 272 276 275 266 253 250 251
308 293 295 303 305 304 294 296 299 285 279 286 288 291 298 299 292 291 287 284 282 277 277 285 291 288 285 280 278 281 277 262 253 256 262 267 266 266 267 271 268 262 267
285 289 298 302 307 307 298 284 276 272 271 276 280 285 293 297 292 289 285 283 280 277 282 287 292 297 295 296 296 291 282 269 259 260 268 273 277 271 262 266 277 288 288
281 290 297 293 292 294 288 274 274 266 267 275 272 271 284 287 292 300 302 290 286 281 299 297 302 309 306 302 296 286 282 278 273 279 281 282 278 270 270 271 260 266 261
279 282 280 282 284 285 292 299 291 290 298 296 296 294 287 293 306 301 297 299 300 315 329 282 283 285 286 289 291 292 285 277 274 274 272 274 280 281 283 280 263 252 263
257 267 271 271 272 274 280 289 301 305 297 296 299 301 301 306 306 303 299 300 303 311 260 274 279 278 279 279 280 278 279 287 289 282 274 271 271 275 284 286 280 272 272
258 257 258 259 260 264 267 274 281 292 302 302 301 300 304 307 308 310 309 310 299 278 254 263 272 279 281 281 280 282 285 292 290 287 283 280 274 270 271 272 274 276 281
256 257 256 259 260 264 270 272 274 276 281 291 302 303 304 305 305 309 312 272 262 265 263 261 262 267 271 272 272 271 271 272 274 273 273 273 273 273 273 271 268 268 270
252 258 259 258 262 263 265 268 270 272 276 280 283 288 303 309 298 297 275 258 259 264 266 268 267 262 261 261 263 264 267 267 266 263 265 266 262 258 264 271 270 272 270
255 257 256 260 257 258 259 260 265 266 268 271 272 277 286 277 274 276 274 265 258 258 260 263 264 264 262 265 263 258 256 261 260 258 259 257 254 258 260 261 266 267 274
250 253 251 253 259 259 260 259 261 264 267 271 279 284 282 274 270 272 270 268 262 258 254 254 258 255 251 253 253 256 259 258 255 251 252 251 249 251 255 258 261 264 267
248 252 255 256 255 259 263 259 257 259 264 267 274 279 276 269 268 268 269 271 270 266 258 250 254 259 254 249 244 242 248 253 252 244 243 246 245 245 246 250 254 261 259
249 251 253 256 258 259 263 265 261 260 262 265 268 268 269 270 270 270 271 271 270 268 262 254 251 256 260 260 255 248 248 253 250 238 231 236 240 241 242 246 248 249 255
252 256 257 256 258 261 264 266 266 266 266 266 268 270 272 273 273 273 273 272 269 268 269 265 258 256 258 259 259 257 258 260 255 241 229 227 234 237 236 240 242 246 247
251 255 260 260 258 259 260 263 265 266 267 269 269 269 269 269 271 272 274 273 275 274 271 266 262 260 261 259 259 262 260 259 252 239 228 224 226 235 235 237 236 238 244